軌道要素
Epoch 2019 Oct. 4.0 TT = JDT 2458760.5
T 2019 Oct. 11.41149 TT Bell
q 1.1163599 (2000.0) P Q
n 0.19936172 Peri. 37.64385 +0.84867481 -0.52876174
a 2.9020721 Node 354.23469 +0.44925471 +0.73335023
e 0.6153232 Incl. 7.28121 +0.27914381 +0.42732712
P 4.94
From 534 observations 2014 Oct. 18-2020 Jan. 20, mean residual 0".5.
|